Time,TemperatureF,DewpointF,PressureIn,WindDirection,WindDirectionDegrees,WindSpeedMPH,WindSpeedGustMPH,Humidity,HourlyPrecipIn,Conditions,Clouds,dailyrainin,SolarRadiationWatts/m^2,SoftwareType,DateUTC
2013-09-28 00:04:00,63.0,61.0,-100.00,NE,38,5.0,10.0,93,0.00,,,0.00,0.000000,,2013-09-28 04:04:00,
2013-09-28 00:13:00,63.0,61.0,-100.00,NE,38,5.0,10.0,93,0.00,,,0.00,0.000000,,2013-09-28 04:13:00,
2013-09-28 00:43:00,63.0,61.0,-100.00,NNW,341,3.0,10.0,94,0.00,,,0.00,0.000000,,2013-09-28 04:43:00,
2013-09-28 00:54:00,63.0,61.0,-100.00,NNW,341,3.0,10.0,94,0.00,,,0.00,0.000000,,2013-09-28 04:54:00,
2013-09-28 01:03:00,63.0,61.0,-100.00,NNW,341,3.0,10.0,94,0.00,,,0.00,0.000000,,2013-09-28 05:03:00,
2013-09-28 01:13:00,63.0,61.0,-100.00,NNW,341,3.0,10.0,94,0.00,,,0.00,0.000000,,2013-09-28 05:13:00,
2013-09-28 01:43:00,64.0,63.0,-100.00,NNE,27,6.0,10.0,98,0.00,,,0.00,0.000000,,2013-09-28 05:43:00,
2013-09-28 01:53:00,64.0,63.0,-100.00,NNE,27,6.0,10.0,98,0.00,,,0.00,0.000000,,2013-09-28 05:53:00,
2013-09-28 02:02:00,64.0,63.0,-100.00,NNE,27,6.0,10.0,98,0.00,,,0.00,0.000000,,2013-09-28 06:02:00,
2013-09-28 02:13:00,64.0,63.0,-100.00,NNE,27,6.0,10.0,98,0.00,,,0.00,0.000000,,2013-09-28 06:13:00,
2013-09-28 02:42:00,64.0,63.0,-100.00,NNE,29,6.0,10.0,96,0.00,,,0.00,0.000000,,2013-09-28 06:42:00,
2013-09-28 02:52:00,64.0,63.0,-100.00,NNE,29,6.0,10.0,96,0.00,,,0.00,0.000000,,2013-09-28 06:52:00,
2013-09-28 03:02:00,64.0,63.0,-100.00,NNE,29,6.0,10.0,96,0.00,,,0.00,0.000000,,2013-09-28 07:02:00,
2013-09-28 03:12:00,64.0,63.0,-100.00,NNE,29,6.0,10.0,96,0.00,,,0.00,0.000000,,2013-09-28 07:12:00,
2013-09-28 03:42:00,63.0,63.0,-100.00,NE,34,7.0,12.0,99,0.00,,,0.00,0.000000,,2013-09-28 07:42:00,
2013-09-28 03:52:00,63.0,63.0,-100.00,NE,34,7.0,12.0,99,0.00,,,0.00,0.000000,,2013-09-28 07:52:00,
2013-09-28 04:02:00,63.0,63.0,-100.00,NE,34,7.0,12.0,99,0.00,,,0.00,0.000000,,2013-09-28 08:02:00,
2013-09-28 04:13:00,63.0,63.0,-100.00,NE,34,7.0,12.0,99,0.00,,,0.00,0.000000,,2013-09-28 08:13:00,
2013-09-28 04:43:00,63.0,63.0,-100.00,NNE,26,5.0,12.0,100,0.00,,,0.00,0.000000,,2013-09-28 08:43:00,
2013-09-28 04:53:00,63.0,63.0,-100.00,NNE,26,5.0,12.0,100,0.00,,,0.00,0.000000,,2013-09-28 08:53:00,
2013-09-28 05:02:00,63.0,63.0,-100.00,NNE,26,5.0,12.0,100,0.00,,,0.00,0.000000,,2013-09-28 09:02:00,
2013-09-28 05:12:00,63.0,63.0,-100.00,NNE,26,5.0,12.0,100,0.00,,,0.00,0.000000,,2013-09-28 09:12:00,
2013-09-28 05:43:00,63.0,63.0,-100.00,NNE,29,6.0,11.0,100,0.00,,,0.00,0.000000,,2013-09-28 09:43:00,
2013-09-28 05:54:00,63.0,63.0,-100.00,NNE,29,6.0,11.0,100,0.00,,,0.00,0.000000,,2013-09-28 09:54:00,
2013-09-28 06:03:00,63.0,63.0,-100.00,NNE,29,6.0,11.0,100,0.00,,,0.00,0.000000,,2013-09-28 10:03:00,
2013-09-28 06:13:00,63.0,63.0,-100.00,NNE,29,6.0,11.0,100,0.00,,,0.00,0.000000,,2013-09-28 10:13:00,
2013-09-28 06:43:00,62.0,62.0,-100.00,NE,44,6.0,11.0,100,0.00,,,0.00,0.000000,,2013-09-28 10:43:00,
2013-09-28 06:52:00,62.0,62.0,-100.00,NE,44,6.0,11.0,100,0.00,,,0.00,0.000000,,2013-09-28 10:52:00,
2013-09-28 07:03:00,62.0,62.0,-100.00,NE,44,6.0,11.0,100,0.00,,,0.00,0.000000,,2013-09-28 11:03:00,
2013-09-28 07:12:00,62.0,62.0,-100.00,NE,44,6.0,11.0,100,0.00,,,0.00,0.000000,,2013-09-28 11:12:00,
2013-09-28 07:43:00,62.0,62.0,-100.00,NE,44,7.0,12.0,100,0.00,,,0.00,3.000000,,2013-09-28 11:43:00,
2013-09-28 07:52:00,62.0,62.0,-100.00,NE,44,7.0,12.0,100,0.00,,,0.00,3.000000,,2013-09-28 11:52:00,
2013-09-28 08:01:00,62.0,62.0,-100.00,NE,44,7.0,12.0,100,0.00,,,0.00,3.000000,,2013-09-28 12:01:00,
2013-09-28 08:12:00,62.0,62.0,-100.00,NE,44,7.0,12.0,100,0.00,,,0.00,3.000000,,2013-09-28 12:12:00,
2013-09-28 08:42:00,62.0,62.0,-100.00,NNE,17,7.0,13.0,100,0.00,,,0.00,43.000000,,2013-09-28 12:42:00,
2013-09-28 08:52:00,62.0,62.0,-100.00,NNE,17,7.0,13.0,100,0.00,,,0.00,43.000000,,2013-09-28 12:52:00,
2013-09-28 09:02:00,62.0,62.0,-100.00,NNE,17,7.0,13.0,100,0.00,,,0.00,43.000000,,2013-09-28 13:02:00,
2013-09-28 09:12:00,62.0,62.0,-100.00,NNE,17,7.0,13.0,100,0.00,,,0.00,43.000000,,2013-09-28 13:12:00,
2013-09-28 11:44:00,73.0,65.0,-100.00,NE,40,7.0,14.0,75,0.00,,,0.00,670.000000,,2013-09-28 15:44:00,
2013-09-28 11:54:00,73.0,65.0,-100.00,NE,40,7.0,14.0,75,0.00,,,0.00,670.000000,,2013-09-28 15:54:00,
2013-09-28 12:05:00,73.0,65.0,-100.00,NE,40,7.0,14.0,75,0.00,,,0.00,670.000000,,2013-09-28 16:05:00,
2013-09-28 12:14:00,73.0,65.0,-100.00,NE,40,7.0,14.0,75,0.00,,,0.00,670.000000,,2013-09-28 16:14:00,
2013-09-28 12:43:00,76.0,65.0,-100.00,ENE,58,6.0,15.0,69,0.00,,,0.00,770.000000,,2013-09-28 16:43:00,
2013-09-28 12:54:00,76.0,65.0,-100.00,ENE,58,6.0,15.0,69,0.00,,,0.00,770.000000,,2013-09-28 16:54:00,
2013-09-28 13:03:00,76.0,65.0,-100.00,ENE,58,6.0,15.0,69,0.00,,,0.00,770.000000,,2013-09-28 17:03:00,
2013-09-28 13:13:00,76.0,65.0,-100.00,ENE,58,6.0,15.0,69,0.00,,,0.00,770.000000,,2013-09-28 17:13:00,
2013-09-28 13:43:00,77.0,61.0,-100.00,NE,43,7.0,15.0,58,0.00,,,0.00,870.000000,,2013-09-28 17:43:00,
2013-09-28 13:52:00,77.0,61.0,-100.00,NE,43,7.0,15.0,58,0.00,,,0.00,870.000000,,2013-09-28 17:52:00,
2013-09-28 14:02:00,77.0,61.0,-100.00,NE,43,7.0,15.0,58,0.00,,,0.00,870.000000,,2013-09-28 18:02:00,
2013-09-28 14:12:00,77.0,61.0,-100.00,NE,43,7.0,15.0,58,0.00,,,0.00,870.000000,,2013-09-28 18:12:00,
2013-09-28 14:52:00,78.0,61.0,-100.00,NE,52,6.0,15.0,55,0.00,,,0.00,696.000000,,2013-09-28 18:52:00,
2013-09-28 15:02:00,78.0,61.0,-100.00,NE,52,6.0,15.0,55,0.00,,,0.00,696.000000,,2013-09-28 19:02:00,
2013-09-28 15:11:00,78.0,61.0,-100.00,NE,52,6.0,15.0,55,0.00,,,0.00,696.000000,,2013-09-28 19:11:00,
2013-09-28 15:42:00,77.0,58.0,-100.00,NE,46,6.0,14.0,52,0.00,,,0.00,608.000000,,2013-09-28 19:42:00,
2013-09-28 15:52:00,77.0,58.0,-100.00,NE,46,6.0,14.0,52,0.00,,,0.00,608.000000,,2013-09-28 19:52:00,
2013-09-28 16:03:00,77.0,58.0,-100.00,NE,46,6.0,14.0,52,0.00,,,0.00,608.000000,,2013-09-28 20:03:00,
2013-09-28 16:12:00,77.0,58.0,-100.00,NE,46,6.0,14.0,52,0.00,,,0.00,608.000000,,2013-09-28 20:12:00,
2013-09-28 16:53:00,78.0,58.0,-100.00,NE,47,8.0,14.0,50,0.00,,,0.00,531.000000,,2013-09-28 20:53:00,
2013-09-28 17:02:00,78.0,58.0,-100.00,NE,47,8.0,14.0,50,0.00,,,0.00,531.000000,,2013-09-28 21:02:00,
2013-09-28 17:12:00,78.0,58.0,-100.00,NE,47,8.0,14.0,50,0.00,,,0.00,531.000000,,2013-09-28 21:12:00,
2013-09-28 17:44:00,75.0,58.0,-100.00,NE,46,6.0,11.0,56,0.00,,,0.00,232.000000,,2013-09-28 21:44:00,
2013-09-28 17:55:00,75.0,58.0,-100.00,NE,46,6.0,11.0,56,0.00,,,0.00,232.000000,,2013-09-28 21:55:00,
2013-09-28 18:04:00,75.0,58.0,-100.00,NE,46,6.0,11.0,56,0.00,,,0.00,232.000000,,2013-09-28 22:04:00,
2013-09-28 18:14:00,75.0,58.0,-100.00,NE,46,6.0,11.0,56,0.00,,,0.00,232.000000,,2013-09-28 22:14:00,
2013-09-28 18:43:00,74.0,57.0,-100.00,ENE,58,3.0,14.0,55,0.00,,,0.00,131.000000,,2013-09-28 22:43:00,
2013-09-28 18:54:00,74.0,57.0,-100.00,ENE,58,3.0,14.0,55,0.00,,,0.00,131.000000,,2013-09-28 22:54:00,
2013-09-28 19:03:00,74.0,57.0,-100.00,ENE,58,3.0,14.0,55,0.00,,,0.00,131.000000,,2013-09-28 23:03:00,
2013-09-28 19:13:00,74.0,57.0,-100.00,ENE,58,3.0,14.0,55,0.00,,,0.00,131.000000,,2013-09-28 23:13:00,
2013-09-28 19:43:00,70.0,57.0,-100.00,NE,49,4.0,12.0,64,0.00,,,0.00,14.000000,,2013-09-28 23:43:00,
2013-09-28 19:53:00,70.0,57.0,-100.00,NE,49,4.0,12.0,64,0.00,,,0.00,14.000000,,2013-09-28 23:53:00,
2013-09-28 20:02:00,70.0,57.0,-100.00,NE,49,4.0,12.0,64,0.00,,,0.00,14.000000,,2013-09-29 00:02:00,
2013-09-28 20:11:00,70.0,57.0,-100.00,NE,49,4.0,12.0,64,0.00,,,0.00,14.000000,,2013-09-29 00:11:00,
2013-09-28 20:43:00,67.0,60.0,-100.00,NNE,31,6.0,9.0,78,0.00,,,0.00,0.000000,,2013-09-29 00:43:00,
2013-09-28 20:52:00,67.0,60.0,-100.00,NNE,31,6.0,9.0,78,0.00,,,0.00,0.000000,,2013-09-29 00:52:00,
2013-09-28 21:02:00,67.0,60.0,-100.00,NNE,31,6.0,9.0,78,0.00,,,0.00,0.000000,,2013-09-29 01:02:00,
2013-09-28 21:12:00,67.0,60.0,-100.00,NNE,31,6.0,9.0,78,0.00,,,0.00,0.000000,,2013-09-29 01:12:00,
2013-09-28 21:43:00,65.0,61.0,-100.00,NNE,30,5.0,10.0,86,0.00,,,0.00,0.000000,,2013-09-29 01:43:00,
2013-09-28 21:52:00,65.0,61.0,-100.00,NNE,30,5.0,10.0,86,0.00,,,0.00,0.000000,,2013-09-29 01:52:00,
2013-09-28 22:03:00,65.0,61.0,-100.00,NNE,30,5.0,10.0,86,0.00,,,0.00,0.000000,,2013-09-29 02:03:00,
2013-09-28 22:12:00,65.0,61.0,-100.00,NNE,30,5.0,10.0,86,0.00,,,0.00,0.000000,,2013-09-29 02:12:00,
2013-09-28 22:43:00,65.0,64.0,-100.00,NE,39,5.0,10.0,95,0.00,,,0.00,0.000000,,2013-09-29 02:43:00,
2013-09-28 22:53:00,65.0,64.0,-100.00,NE,39,5.0,10.0,95,0.00,,,0.00,0.000000,,2013-09-29 02:53:00,
2013-09-28 23:03:00,65.0,64.0,-100.00,NE,39,5.0,10.0,95,0.00,,,0.00,0.000000,,2013-09-29 03:03:00,
2013-09-28 23:12:00,65.0,64.0,-100.00,NE,39,5.0,10.0,95,0.00,,,0.00,0.000000,,2013-09-29 03:12:00,
2013-09-28 23:44:00,63.0,63.0,-100.00,NE,37,5.0,9.0,100,0.00,,,0.00,0.000000,,2013-09-29 03:44:00,
2013-09-28 23:55:00,63.0,63.0,-100.00,NE,37,5.0,9.0,100,0.00,,,0.00,0.000000,,2013-09-29 03:55:00,